Location: Ariel
(45.9570°N, 122.5700°W)
Time: 21:49:45
(UTC-07:00)

Altair - Pass Details

Date: 29 July 2019
Orbit: 1501 x 1683 km, 47.2° (Epoch: 19 August)

Event Time Altitude Azimuth Distance (km) Brightness Sun altitude
Rises 07:59:20 0° 170° (S) 4,712 10.1 20.6°
Reaches altitude 10° 08:05:24 10° 140° (SE) 3,694 10.1 21.7°
Maximum altitude 08:08:06 12° 123° (ESE) 3,558 10.4 22.1°
Drops below altitude 10° 08:10:48 10° 105° (ESE) 3,672 11.0 22.6°
Sets 08:16:42 0° 76° (ENE) 4,640 11.4 23.6°
